Location: Sternwarte ZA, Rosenfeld-Brittheim
(48.2889°N, 8.6789°E)
Time: 00:48:51
(UTC+01:00)

ISS - Pass Details

Date: 05 December 2021
Orbit: 413 x 422 km, 51.6° (Epoch: 24 January)

Event Time Altitude Azimuth Distance (km) Brightness Sun altitude
Rises 18:39:36 0° 290° (WNW) 2,384 1.1 -20.4°
Reaches altitude 10° 18:41:50 10° 280° (W) 1,514 0.1 -20.7°
Maximum altitude 18:44:54 32° 216° (SW) 747 -2.1 -21.2°
Enters shadow 18:45:58 26° 179° (S) 872 -2.1 -21.4°
